Weather History for KRVS - October, 2013

Change the Weather History Date:

Thursday, October 31, 2013

  Actual Average (KTUL) Record (KTUL)
Temperature  
Mean Temperature 60 °F 57 °F  
Max Temperature 71 °F 68 °F 87 °F (1950)
Min Temperature 51 °F 46 °F 18 °F (1993)
Degree Days  
Heating Degree Days 4 9  
Month to date heating degree days 163  
Since 1 July heating degree days 186  
Cooling Degree Days 0 1  
Month to date cooling degree days 63  
Year to date cooling degree days 2028  
Growing Degree Days 10 (Base 50)    
Moisture  
Dew Point 56 °F    
Average Humidity 81    
Maximum Humidity 100    
Minimum Humidity 45    
Precipitation  
Precipitation 0.29 in 0.12 in 6.40 in (1899)
Month to date precipitation 3.93  
Year to date precipitation 35.67  
Sea Level Pressure  
Sea Level Pressure 29.67 in    
Wind  
Wind Speed 6 mph (SW)    
Max Wind Speed 13 mph    
Max Gust Speed 24 mph    
Visibility 9 miles    
Events Rain    
T = Trace of Precipitation, MM = Missing Value Source: NWS Daily Summary

Daily Weather History Graph

Daily Weather History Graph

Search for Another Location

Airport or City:

Trip Planner

Search our weather history database for the weather conditions in past years. The results will help you decide how hot, cold, wet, or windy it might be!

Date:

Astronomy

Oct. 31, 2013 Rise Set
Actual Time 7:45 AM CDT 6:28 PM CDT
Civil Twilight 7:19 AM CDT 6:55 PM CDT
Nautical Twilight 6:49 AM CDT 7:25 PM CDT
Astronomical Twilight 6:19 AM CDT 7:55 PM CDT
Moon 4:41 AM CDT (10/31) 4:43 PM CDT (10/31)
Length of Visible Light 11h 35m
Length of Day
10h 42m
Waning Crescent, 10% of the Moon is Illuminated
Oct 31
Waning Crescent
Nov 3
New
Nov 9
First Quarter
Nov 17
Full
Nov 25
Last Quarter

Hourly Weather History & Observations

Time (CDT) Temp. Dew Point Humidity Pressure Visibility Wind Dir Wind Speed Gust Speed Precip Events Conditions
12:53 AM 66.0 °F 63.0 °F 90% 29.76 in 10.0 mi South 8.1 mph - 0.00 in Rain Light Rain
1:53 AM 66.0 °F 63.0 °F 90% 29.74 in 10.0 mi South 5.8 mph - 0.02 in Rain Light Rain
2:53 AM 64.9 °F 63.0 °F 93% 29.70 in 10.0 mi SE 4.6 mph - 0.02 in Rain Light Rain
3:53 AM 64.9 °F 64.0 °F 97% 29.69 in 5.0 mi Calm Calm - 0.02 in Rain Light Rain
4:11 AM 64.4 °F 64.4 °F 100% 29.67 in 2.0 mi SSW 3.5 mph - 0.08 in Rain Rain
4:31 AM 64.4 °F 64.4 °F 100% 29.66 in 5.0 mi Variable 3.5 mph - 0.18 in Rain Light Rain
4:53 AM 64.9 °F 64.0 °F 97% 29.65 in 5.0 mi South 5.8 mph - 0.22 in Rain Light Rain
5:45 AM 64.4 °F 64.4 °F 100% 29.62 in 10.0 mi SW 3.5 mph - 0.01 in Rain Light Rain
5:53 AM 64.9 °F 64.0 °F 97% 29.63 in 10.0 mi Calm Calm - 0.01 in   Overcast
6:30 AM 64.4 °F 64.4 °F 100% 29.61 in 10.0 mi South 3.5 mph - N/A   Overcast
6:53 AM 64.9 °F 64.0 °F 97% 29.61 in 10.0 mi SSE 5.8 mph - 0.00 in   Overcast
7:16 AM 66.2 °F 64.4 °F 94% 29.58 in 10.0 mi South 5.8 mph - N/A   Overcast
7:53 AM 66.0 °F 64.0 °F 93% 29.59 in 10.0 mi South 4.6 mph - N/A   Overcast
8:26 AM 66.2 °F 64.4 °F 94% 29.58 in 10.0 mi SSW 5.8 mph - N/A   Overcast
8:28 AM 66.2 °F 64.4 °F 94% 29.58 in 10.0 mi South 5.8 mph - N/A   Overcast
8:53 AM 66.0 °F 64.0 °F 93% 29.59 in 10.0 mi South 5.8 mph - N/A   Mostly Cloudy
9:53 AM 69.1 °F 64.9 °F 87% 29.60 in 10.0 mi SW 10.4 mph - N/A   Mostly Cloudy
10:26 AM 69.8 °F 60.8 °F 73% 29.57 in 10.0 mi WSW 8.1 mph 19.6 mph N/A   Mostly Cloudy
10:53 AM 70.0 °F 57.0 °F 63% 29.58 in 10.0 mi SW 9.2 mph 18.4 mph N/A   Scattered Clouds
11:53 AM 69.1 °F 53.1 °F 57% 29.60 in 10.0 mi WSW 12.7 mph 24.2 mph N/A   Clear
12:53 PM 66.9 °F 54.0 °F 63% 29.62 in 10.0 mi West 12.7 mph 19.6 mph N/A   Scattered Clouds
1:23 PM 59.0 °F 55.4 °F 88% 29.63 in 8.0 mi West 10.4 mph 18.4 mph 0.00 in Rain Light Rain
1:53 PM 62.1 °F 53.1 °F 72% 29.66 in 10.0 mi NNW 8.1 mph 17.3 mph 0.00 in   Mostly Cloudy
2:10 PM 60.8 °F 50.0 °F 68% 29.65 in 10.0 mi WNW 9.2 mph 18.4 mph N/A   Overcast
2:34 PM 60.8 °F 50.0 °F 68% 29.67 in 10.0 mi WNW 10.4 mph 17.3 mph N/A   Overcast
2:53 PM 61.0 °F 50.0 °F 67% 29.70 in 10.0 mi WNW 10.4 mph 20.7 mph N/A   Overcast
3:22 PM 62.6 °F 48.2 °F 59% 29.68 in 10.0 mi NW 11.5 mph 19.6 mph N/A   Scattered Clouds
3:53 PM 64.0 °F 46.9 °F 54% 29.70 in 10.0 mi Variable 5.8 mph - N/A   Clear
4:53 PM 66.0 °F 44.1 °F 45% 29.71 in 10.0 mi Variable 5.8 mph - N/A   Clear
5:53 PM 64.9 °F 45.0 °F 48% 29.73 in 10.0 mi West 3.5 mph - N/A   Partly Cloudy
6:53 PM 55.9 °F 48.0 °F 75% 29.74 in 10.0 mi Calm Calm - N/A   Clear
7:53 PM 53.1 °F 48.0 °F 83% 29.77 in 10.0 mi Calm Calm - N/A   Clear
8:53 PM 54.0 °F 46.0 °F 75% 29.78 in 10.0 mi Calm Calm - N/A   Clear
9:53 PM 53.1 °F 46.0 °F 77% 29.80 in 10.0 mi Calm Calm - N/A   Clear
10:53 PM 51.1 °F 45.0 °F 80% 29.82 in 10.0 mi WSW 3.5 mph - N/A   Clear
11:53 PM 52.0 °F 44.1 °F 74% 29.84 in 10.0 mi WSW 4.6 mph - N/A   Clear